GW0422 Weather Reports


time (UTC)temp
F
wind
direction
speed
knots
gust
knots
rain 1hr
in
rain 24hr
in
rain mn
in
humidity
%
barometer
mb
20260507191903 55 202 0.0 4.3 0.00 0.00 0.00 58 1014.6
20260507190906 55 137 0.9 7.0 0.00 0.00 0.00 57 1014.5
20260507185913 55 158 0.0 2.6 0.00 0.00 0.00 58 1014.5
20260507184914 55 177 0.9 5.2 0.00 0.00 0.00 57 1014.4
20260507183918 55 17 0.0 6.1 0.00 0.00 0.00 57 1014.3
20260507182919 56 211 0.9 4.3 0.00 0.00 0.00 56 1014.3
20260507182403 56 155 0.9 7.0 0.00 0.00 0.00 56 1014.4
20260507181401 56 229 0.0 4.3 0.00 0.00 0.00 55 1014.3
20260507180410 56 189 1.7 8.7 0.00 0.00 0.00 55 1014.2
20260507175410 56 217 0.9 4.3 0.00 0.00 0.00 54 1014.1
20260507174413 56 216 0.9 5.2 0.00 0.00 0.00 54 1014.1
20260507173415 56 161 1.7 6.1 0.00 0.00 0.00 53 1014.2
20260507172418 56 158 0.9 5.2 0.00 0.00 0.00 53 1014.3
20260507171406 56 196 0.0 4.3 0.00 0.00 0.00 53 1014.3
20260507170409 56 115 1.7 6.1 0.00 0.00 0.00 53 1014.3
20260507165419 57 126 0.9 6.1 0.00 0.00 0.00 52 1014.6
20260507163411 56 153 0.0 4.3 0.00 0.00 0.00 55 1014.5
20260507162416 55 199 0.0 4.3 0.00 0.00 0.00 57 1014.5
20260507161417 55 153 0.0 5.2 0.00 0.00 0.00 56 1014.6
20260507160419 55 154 0.0 3.5 0.00 0.00 0.00 57 1014.6
20260507155900 55 168 0.0 4.3 0.00 0.00 0.00 57 1014.7
20260507154902 55 166 0.9 5.2 0.00 0.00 0.00 57 1014.7
20260507153903 55 131 0.9 4.3 0.00 0.00 0.00 58 1014.8
20260507152913 55 141 0.9 4.3 0.00 0.00 0.00 58 1014.8
20260507151919 55 177 0.9 5.2 0.00 0.00 0.00 58 1014.8
20260507151402 55 172 0.0 5.2 0.00 0.00 0.00 58 1014.8
20260507150409 55 226 0.9 3.5 0.00 0.00 0.00 57 1014.9
20260507145416 55 177 0.0 4.3 0.00 0.00 0.00 57 1014.9
20260507144412 55 211 0.0 4.3 0.00 0.00 0.00 57 1014.9
20260507143420 55 145 0.9 5.2 0.00 0.00 0.00 57 1015.1
20260507142421 56 207 0.0 4.3 0.00 0.00 0.00 56 1015.2
20260507141427 56 189 0.0 4.3 0.00 0.00 0.00 57 1015.2
20260507140406 56 178 0.9 3.5 0.00 0.00 0.00 57 1015.3
20260507135407 57 164 0.0 7.0 0.00 0.00 0.00 57 1015.5
20260507134410 57 109 0.0 4.3 0.00 0.00 0.00 57 1015.6
20260507132902 57 183 0.9 3.5 0.00 0.00 0.00 59 1015.6
20260507131906 56 127 0.0 3.5 0.00 0.00 0.00 59 1015.6
20260507130907 55 172 0.9 3.5 0.00 0.00 0.00 59 1015.6
20260507125910 55 160 0.9 4.3 0.00 0.00 0.00 60 1015.8
20260507124911 54 179 0.9 4.3 0.00 0.00 0.00 62 1015.8
20260507123915 54 148 0.9 4.3 0.00 0.00 0.00 62 1015.9
20260507122921 54 241 0.9 4.3 0.00 0.00 0.00 63 1016.0
20260507122419 54 112 0.9 4.3 0.00 0.00 0.00 63 1015.9
20260507121400 0 171 1.7 5.2 0.00 0.00 0.00 1015.8
20260507120401 0 105 0.0 3.5 0.00 0.00 0.00 1016.0
20260507115410 0 195 0.0 5.2 0.00 0.00 0.00 1016.1
20260507114907 0 148 0.9 3.5 0.00 0.00 0.00 1016.0
20260507113910 0 174 0.9 4.3 0.00 0.00 0.00 1016.0
20260507112909 0 189 0.9 6.1 0.00 0.00 0.00 1016.4
20260507111910 0 144 1.7 7.0 0.00 0.00 0.00 1016.4
20260507110911 0 227 0.9 6.1 0.00 0.00 0.00 1016.5
20260507105913 0 187 0.0 5.2 0.00 0.00 0.00 1016.6
20260507104914 0 193 1.7 7.0 0.00 0.00 0.00 1016.6
20260507103917 0 110 1.7 7.8 0.00 0.00 0.00 1016.4
20260507102917 0 162 0.9 3.5 0.00 0.00 0.00 1016.4
20260507102415 0 173 0.9 3.5 0.00 0.00 0.00 1016.5
20260507101418 50 193 2.6 6.1 0.00 0.00 0.00 72 1016.6
20260507100903 50 97 0.0 5.2 0.00 0.00 0.00 73 1016.6
20260507095904 50 216 0.9 5.2 0.00 0.00 0.00 75 1016.6
20260507094909 49 199 1.7 3.5 0.00 0.00 0.00 75 1016.5
20260507093911 49 168 0.0 3.5 0.00 0.00 0.00 76 1016.5
20260507092926 49 101 1.7 5.2 0.00 0.00 0.00 76 1016.4
20260507091916 48 89 0.0 4.3 0.00 0.00 0.00 80 1016.3
20260507090918 47 166 0.0 2.6 0.00 0.00 0.00 80 1016.5
20260507090404 47 191 0.0 3.5 0.00 0.00 0.00 80 1016.5
20260507085404 46 92 0.9 3.5 0.00 0.00 0.00 81 1016.5
20260507084406 46 156 0.9 5.2 0.00 0.00 0.00 80 1016.5
20260507083409 46 181 0.9 4.3 0.00 0.00 0.00 80 1016.5
20260507082417 46 107 0.9 3.5 0.00 0.00 0.00 80 1016.4
20260507081416 45 181 0.0 2.6 0.00 0.00 0.00 81 1016.4
20260507080418 45 174 0.0 4.3 0.00 0.00 0.00 81 1016.3
20260507075904 45 155 0.9 4.3 0.00 0.00 0.00 81 1016.3
20260507074411 45 178 0.9 2.6 0.00 0.00 0.00 81 1016.4
20260507073511 44 162 0.0 5.2 0.00 0.00 0.00 80 1016.4
20260507071900 44 192 0.0 3.5 0.00 0.00 0.00 81 1016.4
20260507070903 44 194 0.0 2.6 0.00 0.00 0.00 81 1016.3
20260507065911 44 189 0.0 1.7 0.00 0.00 0.00 82 1016.2
20260507064402 43 111 0.0 2.6 0.00 0.00 0.00 82 1016.3
20260507063409 43 108 0.0 3.5 0.00 0.00 0.00 82 1016.2
20260507062902 43 178 0.0 2.6 0.00 0.00 0.00 83 1016.4
20260507061904 42 145 0.0 0.0 0.00 0.00 0.00 84 1016.3
20260507060907 42 145 0.0 0.9 0.00 0.00 0.00 84 1016.2
20260507055912 42 195 0.9 3.5 0.00 0.00 0.00 85 1016.0
20260507054912 41 176 0.0 0.9 0.00 0.00 0.00 86 1016.1
20260507053917 41 117 0.0 0.0 0.00 0.00 0.00 88 1016.0
20260507052917 40 117 0.0 0.0 0.00 0.00 0.00 87 1016.1
20260507052401 40 117 0.0 0.9 0.00 0.00 0.00 88 1016.1
20260507051403 40 117 0.0 1.7 0.00 0.00 0.00 89 1016.1
20260507050406 40 117 0.0 0.9 0.00 0.00 0.00 90 1016.1
20260507045408 39 117 0.0 1.7 0.00 0.00 0.00 91 1016.0
20260507044417 39 104 0.0 1.7 0.00 0.00 0.00 92 1016.0
20260507043416 38 91 0.0 0.9 0.00 0.00 0.00 93 1016.0
20260507042359 37 58 0.0 0.0 0.00 0.00 0.00 93 1016.0
20260507040907 37 58 0.0 0.9 0.00 0.00 0.00 93 1015.9
20260507035918 37 58 0.0 0.0 0.00 0.00 0.00 92 1016.0
20260507034900 37 58 0.0 0.9 0.00 0.00 0.00 92 1016.0
20260507033902 37 58 0.0 0.0 0.00 0.00 0.00 92 1016.1
20260507032407 37 58 0.0 1.7 0.00 0.00 0.00 94 1016.1
20260507031414 36 90 0.0 0.9 0.00 0.00 0.00 94 1016.2
20260507030405 36 90 0.9 1.7 0.00 0.00 0.00 94 1016.3
20260507025405 36 154 0.0 0.0 0.00 0.00 0.00 95 1016.2
20260507024409 35 154 0.0 0.0 0.00 0.00 0.00 94 1016.4
20260507023413 35 154 0.0 0.0 0.00 0.00 0.00 94 1016.3
20260507022907 34 154 0.0 0.0 0.00 0.00 0.00 94 1016.4
20260507021910 34 154 0.0 0.9 0.00 0.00 0.00 93 1016.4
20260507020919 34 154 0.0 0.0 0.00 0.00 0.00 92 1016.3
20260507020415 34 154 0.0 0.0 0.00 0.00 0.00 92 1016.3
20260507015900 34 154 0.0 0.0 0.00 0.00 0.00 92 1016.3
20260507014900 34 154 0.0 0.0 0.00 0.00 0.00 92 1016.3
20260507013908 34 154 0.0 0.0 0.00 0.00 0.00 93 1016.3
20260507012911 34 154 0.0 0.9 0.00 0.00 0.00 93 1016.3
20260507011914 33 154 0.0 0.0 0.00 0.00 0.00 91 1016.2
20260507010917 34 154 0.0 0.0 0.00 0.00 0.00 90 1016.4
20260507005858 34 154 0.0 0.0 0.00 0.00 0.00 89 1016.4
20260507004901 34 154 0.0 0.0 0.00 0.00 0.00 88 1016.5
20260507003414 35 154 0.0 0.0 0.00 0.00 0.00 88 1016.5
20260507002420 35 154 0.0 0.0 0.00 0.00 0.00 88 1016.4
20260507001913 36 154 0.0 0.0 0.00 0.00 0.00 88 1016.5
20260507000915 36 154 0.0 0.0 0.00 0.00 0.00 87 1016.5
20260506235906 37 154 0.0 0.0 0.00 0.00 0.00 86 1016.7
20260506234907 37 154 0.0 0.0 0.00 0.00 0.00 86 1016.7
20260506233908 38 154 0.0 0.0 0.00 0.00 0.00 84 1016.8
20260506232909 38 154 0.0 0.9 0.00 0.00 0.00 85 1016.6
20260506231909 38 148 0.0 0.0 0.00 0.00 0.00 82 1016.5
20260506230915 39 148 0.0 0.9 0.00 0.00 0.00 81 1016.6
20260506225928 40 148 0.0 0.9 0.00 0.00 0.00 81 1016.6
20260506224907 40 148 0.0 0.9 0.00 0.00 0.00 80 1016.6
20260506223419 41 148 0.0 1.7 0.00 0.00 0.00 78 1016.6
20260506222417 42 73 0.0 0.0 0.00 0.00 0.00 76 1016.5
20260506221419 43 73 0.0 2.6 0.00 0.00 0.00 76 1016.4
20260506220401 43 125 0.0 1.7 0.00 0.00 0.00 75 1016.3
20260506215402 43 119 0.0 1.7 0.00 0.00 0.00 74 1016.3
20260506214405 44 103 0.0 2.6 0.00 0.00 0.00 73 1016.4
20260506213412 44 133 0.0 2.6 0.00 0.00 0.00 73 1016.4
20260506211916 44 127 0.0 2.6 0.00 0.00 0.00 72 1016.6
20260506210921 45 39 0.0 2.6 0.00 0.00 0.00 72 1016.3
20260506210406 45 291 0.0 2.6 0.00 0.00 0.00 71 1016.2
20260506205859 45 82 0.0 2.6 0.00 0.00 0.00 71 1016.2
20260506204903 46 222 0.0 2.6 0.00 0.00 0.00 70 1016.2
20260506203904 46 31 0.9 3.5 0.00 0.00 0.00 69 1016.2
20260506202918 46 10 0.0 3.5 0.00 0.00 0.00 69 1016.2
20260506201912 46 156 0.0 2.6 0.00 0.00 0.00 69 1016.0
20260506200910 47 94 0.0 5.2 0.00 0.00 0.00 69 1015.9
20260506195913 47 153 0.9 2.6 0.00 0.00 0.00 68 1015.9
20260506194915 47 360 0.9 3.5 0.00 0.00 0.00 67 1015.8
20260506193922 47 139 0.0 5.2 0.00 0.00 0.00 66 1015.7
20260506193404 47 140 0.0 4.3 0.00 0.00 0.00 66 1015.6